This is the latest recevied weather packets stored in our database for station/object KCXW. If no packets are shown the sender has not sent any weather packets the latest 10 day(s).
| Time | Temp. | Humidity | Pressure | Rain* | Wind** | Luminosity | Snow |
|---|---|---|---|---|---|---|---|
| 1777966405 | 20.56° C | 73% | 1006.8 hPa | - | - | - | - |
| 1777965809 | 20.56° C | 73% | 1006.8 hPa | - | - | - | - |
| 1777965205 | 20° C | 77% | 1007.5 hPa | - | - | - | - |
| 1777964607 | 20° C | 77% | 1007.5 hPa | - | - | - | - |
| 1777964007 | 18.89° C | 77% | 1007.5 hPa | - | - | - | - |
| 1777963408 | 18.89° C | 77% | 1007.5 hPa | - | - | - | - |
| 1777962804 | 18.89° C | 82% | 1007.8 hPa | - | - | - | - |
| 1777962203 | 18.89° C | 82% | 1007.8 hPa | - | - | - | - |
| 1777961607 | 20° C | 68% | 1008.1 hPa | - | - | - | - |
| 1777961006 | 20° C | 68% | 1008.1 hPa | - | - | - | - |
| 1777960412 | 20° C | 72% | 1008.1 hPa | - | - | - | - |
| 1777959812 | 20° C | 72% | 1008.1 hPa | - | - | - | - |
| 1777959207 | 18.89° C | 77% | 1008.1 hPa | - | - | - | - |
| 1777958607 | 18.89° C | 77% | 1008.1 hPa | - | - | - | - |
| 1777958007 | 18.89° C | 77% | 1008.1 hPa | - | - | - | - |
| 1777957409 | 18.89° C | 77% | 1008.1 hPa | - | - | - | - |
| 1777956804 | 18.89° C | 77% | 1008.5 hPa | - | - | - | - |
| 1777956205 | 18.89° C | 77% | 1008.5 hPa | - | - | - | - |
| 1777955606 | 20° C | 72% | 1008.8 hPa | - | - | - | - |
| 1777955003 | 20° C | 72% | 1008.8 hPa | - | - | - | - |
| 1777954833 | 20° C | 72% | 1008.5 hPa | - | - | - | - |
| 1777954408 | 20° C | 72% | 1008.5 hPa | - | - | - | - |
| 1777953207 | 20.56° C | 68% | 1008.5 hPa | - | - | - | - |
| 1777952609 | 20.56° C | 68% | 1008.5 hPa | - | - | - | - |
| 1777952006 | 20.56° C | 68% | 1008.8 hPa | - | - | - | - |
* Rain since midnight (hover to see other rain measurements)
** Current wind speed in m/s (hover to see current wind gust speed)